Location: Unspecified
(43.4354°N, 0.0000°E)
Time: 20:46:15
(UTC+00:00)

S-56A Canister/Altair - Pass Details

Date: 25 June 2019
Orbit: 632 x 2500 km, 38.9° (Epoch: 21 July)

Event Time Altitude Azimuth Distance (km) Brightness Sun altitude
Rises 13:51:55 0° 223° (SW) 5,830 12.5 59.9°
Reaches altitude 10° 13:56:25 10° 216° (SW) 4,598 12.1 59.2°
Maximum altitude 14:07:05 38° 155° (SSE) 2,332 10.5 57.5°
Drops below altitude 10° 14:14:36 10° 91° (E) 3,245 10.5 56.3°
Sets 14:17:13 0° 83° (E) 3,983 10.9 55.9°
